Back to catalog

DELTA 1 DEB

AliveSSO
NORAD 12542·DEBRIS·🇺🇸 United States

Launched Jul 29, 1976 from Vandenberg Space Force Base

Loading…

Next Passes (next 24 hours)

TLE

FreshSource: Space-Track

Epoch: Sep 13, 2026, 21:49 UTC

1 12542U 76077DX  26256.90923199  .00000036  00000-0  51885-3 0  9993
2 12542 101.9598 241.2757 0060403 114.1233 302.1866 12.52410635 89197

Track DELTA 1 DEB in real time with AllMySat

Download on the App Store